Regional Weather Roundup
Issued by NWS

Home | Current Version | Previous Version | Text Only | Print | Product List | Glossary On
Versions: 1 2 3 4 5 6 7 8 9 10 11 12 13 14 15 16 17 18 19 20 21 22 23 24 25 26 27 28 29 30 31 32 33 34 35 36 37 38 39 40 41 42 43 44 45 46 47 48 49 50
000
ASUS42 KKEY 271010
RWRKEY

FLORIDA REGIONAL WEATHER ROUNDUP FOR THE FLORIDA KEYS
NATIONAL WEATHER SERVICE KEY WEST FLORIDA
600 AM EDT SAT MAY 27 2017

...SOUTH FLORIDA AND THE KEYS...

CITY           SKY/WX    TMP DP  RH WIND       PRES   REMARKS
FORT MYERS     CLEAR     71  65  81 NE3       30.04S
SW REGIONAL AP CLEAR     70  63  78 NE3       30.05S
NAPLES         CLEAR     74  64  71 N5        30.04S
MIAMI          PTCLDY    82  78  88 S5        30.03S HX  91
WEST KENDALL     N/A    N/A N/A N/A MISG      30.03S
HOMESTEAD      CLEAR     76  76 100 CALM      30.02S
MARATHON       CLEAR     83  77  82 NE3       30.03S HX  92
BOCA CHICA NAS PTCLDY    81  79  94 NE3       30.03S HX  90
KEY WEST INTL  CLEAR     82  79  90 NE3       30.04R HX  92

...INTERNATIONAL WEATHER...

CITY           SKY/WX    TMP DP  RH WIND       PRES   REMARKS
NASSAU BAHAMAS PTCLDY    81  75  83 CALM      30.04R
CANCUN MEXICO  MOCLDY    81  77  89 E13       29.98S
COZUMEL MEXICO PTCLDY    81  75  83 SE7       29.95S

ADJACENT COASTAL WATERS...

STATION/POSITION TIME  SKY/WX   TEMP    WIND        PRES    WAVE
                                AIR SEA DIR/SP/G            HT/PER
                 (UTC)          (F)     (DEG/KT/KT) (MB)    (FT/S)
PULASKI SHOAL LI 1000            81     110/  6/  7 1017.0R
SAND KEY         0950            82      70/  6/  7 1017.5R
LONG KEY         0900            82 86  190/  2/  2 1017.0S
MOLASSES REEF    0900            80 82  120/  5/  7 1017.2R
FOWEY ROCKS      0900            81 82  160/ 10/ 11 1017.3F
Buoy 42097       1000                                 N/A     2/ 7

$$



USA.gov is the U.S. government's official web portal to all federal, state and local government web resources and services.